Theta_e
313 313 314 316 319 319 320 323 321 323 322 315 316 317 319 324 325 329 334 336 345 349 349 350 350 349 349 350 355 360 357 357 359 356 351 348 343 342 340 335 332 330 333 336 338 339 339 340 340 341 339 336 332 328 325 325 331 336 339 341 342 342 342 343 343 342 342 342 343 343 343 342 342 341 341 341 341 341 340 340 339 339 340 339 334 332 333 333 334 334 333 335 334 335 336 336 336
313 313 314 317 319 318 320 325 324 321 318 313 315 318 320 325 325 325 326 333 349 349 351 355 353 357 355 354 355 356 356 351 352 353 349 344 343 343 338 333 329 330 334 337 339 339 340 341 341 341 339 336 333 330 330 334 339 341 342 343 343 343 343 343 342 342 342 342 342 342 342 342 342 342 341 341 341 341 341 340 340 340 340 339 334 331 333 332 333 332 332 334 335 335 336 336 336
312 314 315 318 318 318 327 327 322 317 314 312 314 319 321 321 321 321 322 334 350 349 351 352 352 354 351 352 350 351 354 347 345 345 344 344 344 342 337 331 330 331 335 338 340 340 340 340 340 340 338 337 335 333 335 339 342 342 343 343 343 343 343 343 342 342 342 341 341 342 342 342 342 342 342 342 341 341 341 341 340 340 340 340 334 330 333 333 332 331 331 334 334 334 334 334 334
312 317 317 319 320 324 333 328 324 319 313 313 313 319 322 320 321 320 327 344 350 349 349 350 353 347 348 357 352 357 356 347 346 344 344 344 343 342 337 332 333 335 338 339 339 339 339 339 340 339 338 338 336 335 337 340 342 343 343 343 343 343 343 343 342 341 341 341 341 342 342 341 341 342 342 341 341 341 341 340 340 341 339 336 331 328 330 332 331 330 332 334 334 333 332 332 332
313 318 318 319 323 325 327 323 323 319 314 317 315 318 323 319 321 318 330 351 350 350 349 350 356 347 349 355 351 361 358 348 346 343 344 343 342 341 338 335 335 338 339 339 338 339 339 338 339 339 339 337 336 337 338 341 342 343 343 342 343 343 342 342 342 341 341 342 341 341 341 342 342 341 341 341 340 340 340 340 340 340 336 330 327 327 327 328 328 328 332 333 333 332 332 332 331
315 319 318 319 321 320 321 318 318 317 318 322 317 319 322 319 321 317 325 343 348 348 346 351 354 351 353 349 349 355 353 351 347 343 344 342 341 339 338 338 337 339 339 338 338 338 338 338 339 339 338 336 336 337 339 341 342 342 342 342 342 342 343 342 342 342 342 341 340 340 339 339 339 340 340 339 338 338 338 339 339 338 336 331 327 327 326 327 326 325 329 331 331 331 331 332 331
316 318 319 321 319 320 324 321 318 320 320 321 320 320 320 318 319 318 320 329 342 345 346 352 350 357 358 350 353 351 347 350 345 343 343 341 340 338 338 338 337 337 337 337 337 338 338 338 339 338 336 335 336 338 340 341 342 342 342 342 342 342 342 342 342 341 340 338 337 335 332 331 332 334 334 335 336 336 337 337 337 336 337 334 328 326 327 327 327 324 326 329 330 331 331 331 331
318 319 320 322 323 322 323 322 320 320 318 319 319 319 319 319 319 318 320 320 333 347 352 351 348 360 358 352 358 350 344 346 344 343 342 340 339 337 338 336 335 336 336 336 337 338 338 338 337 336 335 335 337 340 342 342 342 342 342 342 342 342 342 342 341 340 338 335 333 330 330 329 328 327 326 329 331 332 333 333 334 335 333 332 328 326 327 328 328 324 323 324 327 329 329 330 330
319 318 319 321 321 319 319 319 317 318 318 319 318 320 322 320 319 317 321 317 326 351 357 350 348 359 356 354 357 347 342 344 343 342 340 339 338 338 338 332 327 332 335 334 337 338 337 337 335 334 335 336 339 342 342 342 342 342 342 342 342 342 341 341 339 338 336 333 332 332 332 331 328 325 322 321 320 322 325 324 329 331 328 328 327 326 327 329 330 327 323 321 323 327 328 329 329
321 318 320 321 319 316 315 317 318 318 318 320 317 319 320 317 318 317 319 316 329 354 354 351 354 357 356 354 354 346 342 342 341 340 340 339 338 337 336 331 322 325 332 333 335 336 336 336 333 334 337 338 341 342 342 342 341 342 342 342 342 341 340 339 338 336 334 333 333 334 332 330 327 324 320 317 313 313 315 316 321 324 324 327 327 326 326 329 330 329 326 322 322 326 327 329 329
325 320 318 318 318 314 314 316 319 321 319 319 318 318 318 317 319 318 319 317 338 359 352 356 359 354 355 353 351 345 341 341 341 340 340 340 338 335 332 332 327 320 324 328 332 333 335 337 336 337 338 340 342 342 342 341 342 342 342 342 341 340 339 337 336 335 334 335 334 333 331 327 323 320 318 314 311 309 310 312 314 318 324 327 325 325 326 329 330 330 329 325 322 325 327 328 329
324 320 320 320 318 316 317 317 320 323 321 319 319 319 318 318 319 319 319 317 343 362 351 357 356 352 357 355 348 342 342 342 341 341 340 339 336 332 328 330 329 322 321 325 330 333 336 338 337 338 339 340 342 342 342 342 342 341 341 341 340 339 338 337 336 336 335 334 332 331 327 322 319 317 316 313 311 309 309 310 312 317 323 324 322 324 326 328 331 330 330 327 323 323 325 327 328
322 321 321 321 319 320 318 317 321 324 323 322 320 319 318 318 318 319 318 322 353 362 349 352 351 353 356 353 348 343 343 342 341 341 339 337 332 329 328 329 329 327 328 329 331 335 337 338 338 339 339 340 341 342 342 342 341 341 340 340 340 339 337 337 336 336 334 332 330 327 322 319 320 320 320 319 315 311 310 310 311 315 319 319 319 321 325 328 330 331 330 329 326 323 322 323 326
320 320 320 320 318 320 320 317 318 318 319 322 320 318 318 317 319 320 315 326 356 353 347 350 348 355 356 352 350 345 343 342 341 340 338 335 332 332 332 333 333 333 333 333 334 335 336 337 338 339 340 341 342 342 342 341 340 340 340 340 339 338 338 337 336 334 331 329 327 323 320 320 323 324 325 325 322 316 312 311 311 312 314 316 316 319 325 328 330 330 330 330 328 327 325 324 323
317 319 322 322 317 317 318 317 317 315 317 320 319 317 318 318 317 318 317 336 356 347 347 350 346 355 356 353 353 347 343 342 341 339 338 336 336 336 335 336 336 336 336 335 335 336 337 338 339 340 341 342 342 342 341 340 340 340 340 339 339 338 337 336 334 332 330 328 325 323 322 322 323 325 326 327 326 323 317 313 311 311 312 313 313 318 324 327 329 330 330 330 329 329 328 326 325
316 318 321 319 316 315 315 317 317 316 317 318 318 316 318 318 317 328 334 346 355 347 349 351 347 352 353 352 349 344 342 341 340 339 338 338 338 338 338 338 338 338 337 337 338 338 340 341 341 342 342 342 342 342 340 340 340 340 340 339 339 338 336 335 333 331 332 331 328 328 328 326 326 326 326 326 327 326 324 318 314 312 311 311 312 317 324 325 327 328 328 328 328 327 328 327 327
316 318 320 316 316 315 315 318 317 317 319 318 318 316 317 316 323 344 347 347 352 349 349 350 347 349 350 349 345 343 342 340 339 339 338 338 338 338 339 340 340 340 339 339 339 340 341 341 342 342 341 341 341 341 340 340 340 340 340 339 338 337 336 335 331 330 334 335 333 333 333 332 332 330 326 325 326 326 326 325 321 317 313 312 313 318 323 324 325 326 326 326 326 325 327 328 329
315 320 320 316 316 315 317 319 317 319 319 317 317 317 317 316 322 341 352 350 351 350 348 349 348 347 346 345 343 342 341 340 339 338 338 338 338 338 340 340 340 341 340 339 340 340 341 341 342 341 341 341 341 341 340 340 340 340 339 338 337 336 335 333 330 330 334 336 337 336 335 336 336 335 330 326 327 327 326 327 327 325 322 318 317 317 319 321 322 322 323 324 324 323 325 328 330
315 321 319 315 316 315 317 317 317 318 316 318 317 316 316 317 316 325 354 357 349 353 350 348 349 347 345 343 343 341 340 340 339 338 338 337 337 338 339 339 340 340 340 339 339 340 339 340 341 340 341 341 341 341 341 340 340 340 338 336 336 336 335 332 331 332 334 337 338 338 337 336 338 338 335 333 333 332 331 330 330 330 330 329 327 325 324 324 325 326 328 329 329 328 327 329 331
316 319 317 316 316 315 316 315 317 316 317 318 315 318 314 322 330 327 354 361 350 354 353 351 352 349 345 343 342 341 340 340 339 338 338 337 337 337 338 338 338 339 340 339 339 340 340 340 340 340 341 341 341 341 341 340 339 339 337 336 335 333 331 330 332 335 336 337 338 338 337 337 337 337 338 338 336 335 337 336 336 334 334 335 335 333 333 333 333 334 335 335 334 334 333 333 334
317 316 316 317 315 315 316 314 316 316 317 315 315 319 310 329 355 348 355 361 353 352 351 352 351 347 345 343 342 342 341 340 340 339 338 338 337 337 337 337 337 338 339 340 340 340 340 339 339 339 340 341 341 341 340 339 339 338 336 335 332 330 329 328 331 334 336 338 339 339 338 337 337 336 337 338 336 336 338 337 337 337 337 337 337 336 336 336 336 336 336 335 335 335 336 335 336
317 316 316 317 314 315 316 315 315 314 314 315 315 314 317 347 365 357 356 358 355 351 349 348 346 345 344 343 343 342 341 341 340 340 339 338 337 337 337 337 337 337 339 340 341 340 340 339 339 339 340 341 340 340 340 339 338 337 336 334 331 331 333 332 333 335 337 338 339 339 339 338 337 337 336 337 337 337 338 337 337 337 336 336 337 338 337 337 337 337 336 336 336 337 337 337 337
317 317 317 316 314 314 316 315 314 315 314 315 315 313 336 369 367 356 359 357 352 349 346 345 344 344 343 343 343 342 342 342 341 341 340 339 338 338 337 337 337 338 338 339 340 340 339 339 339 339 339 340 340 340 339 339 337 336 335 333 333 334 336 337 338 338 338 338 338 339 339 339 338 338 337 337 338 338 338 337 338 337 336 336 337 338 338 337 338 338 337 337 337 338 338 338 337
315 316 316 315 315 314 315 316 314 316 314 314 316 312 337 367 366 355 356 355 350 348 345 343 343 342 342 342 342 342 342 342 342 341 341 340 339 339 338 337 337 338 338 338 339 340 339 339 338 338 338 339 339 339 339 338 336 335 333 333 335 336 337 339 339 339 338 338 338 339 339 339 339 338 338 338 338 338 337 338 339 338 337 337 337 338 338 338 338 338 338 338 337 338 338 337 337
314 314 315 315 315 314 315 316 315 315 314 314 313 317 340 359 360 353 353 352 347 345 342 341 341 340 340 341 342 342 341 341 340 340 340 341 340 339 339 338 338 339 339 337 338 339 339 337 337 336 337 337 338 339 338 337 335 334 333 333 335 336 338 339 339 339 338 339 339 339 339 339 339 339 338 338 338 338 337 338 339 338 338 338 338 338 338 339 338 338 338 338 337 337 336 336 336
314 314 314 315 314 315 315 315 317 314 314 314 312 335 353 352 352 353 351 348 344 342 341 340 340 340 340 341 341 341 341 341 339 339 340 340 339 339 339 339 339 339 338 337 338 339 338 337 336 336 335 335 337 338 337 336 335 335 335 336 336 337 338 338 339 339 339 340 339 339 339 339 339 339 338 337 337 338 338 339 338 338 338 338 339 339 339 339 338 338 338 338 338 337 336 336 336
315 315 314 316 314 315 315 314 317 313 316 314 313 345 357 346 348 356 351 345 343 342 341 340 340 340 340 340 340 340 340 339 338 338 339 339 338 338 338 338 338 339 338 338 339 340 338 337 337 336 335 335 335 336 335 335 335 336 336 337 338 338 338 338 338 339 340 340 339 339 339 339 339 338 338 337 338 338 338 338 338 338 339 339 338 339 339 339 338 338 338 338 338 338 337 336 336
314 314 314 315 314 315 314 314 316 313 316 314 315 343 353 349 352 355 349 345 344 343 343 341 340 340 340 340 340 339 338 338 337 338 338 338 337 337 338 338 338 339 338 339 341 341 339 337 337 337 336 335 334 334 335 335 336 336 336 337 337 338 338 338 338 339 339 339 339 339 339 339 339 339 338 338 338 338 338 338 338 338 339 339 338 338 339 339 338 338 338 338 338 337 336 335 335
313 314 314 314 314 314 314 315 314 313 315 315 323 337 345 355 357 351 347 345 343 344 343 342 341 340 340 339 339 339 337 337 337 337 337 338 337 337 338 338 339 339 339 340 341 341 340 338 338 337 336 335 333 333 335 335 336 336 336 337 338 338 338 338 339 339 339 339 339 340 339 338 338 339 339 339 338 338 338 338 338 339 339 338 338 338 339 339 338 338 338 337 337 336 335 334 334
311 313 314 314 314 313 314 314 313 314 314 317 323 324 337 353 352 347 346 344 344 344 343 342 341 339 339 338 338 338 337 336 337 337 337 337 338 338 338 339 339 340 340 341 341 341 340 339 338 338 337 335 333 333 334 335 336 336 337 338 339 339 338 339 339 339 339 339 339 339 338 337 337 338 339 339 338 338 338 338 338 338 338 338 338 338 338 338 338 337 337 337 336 335 334 334 334
312 313 314 314 314 313 314 314 314 314 313 319 316 316 337 352 347 346 345 343 345 344 343 341 340 339 338 337 337 337 337 336 337 337 337 337 337 338 338 339 339 340 341 341 341 340 340 339 338 338 338 335 333 334 334 335 336 337 338 339 339 339 338 339 338 338 338 338 338 338 338 337 337 337 338 337 337 337 338 338 338 338 338 338 338 337 337 336 337 336 336 335 335 334 334 333 333
312 312 313 313 313 313 313 315 315 314 313 317 310 316 342 351 345 344 342 341 345 344 344 341 340 339 337 338 337 338 338 336 336 336 337 337 337 338 338 339 339 340 340 340 339 339 339 339 338 339 337 335 334 335 335 336 337 338 339 339 338 338 338 338 338 337 337 337 336 336 337 337 337 337 338 337 337 337 337 338 337 337 337 337 336 336 336 336 335 335 335 334 333 333 333 333 332
314 312 313 312 312 311 313 315 314 315 315 314 316 330 346 350 344 342 341 341 343 344 345 342 341 339 338 339 338 338 339 337 336 336 336 337 337 337 337 338 338 338 339 338 338 337 337 336 337 337 336 336 336 336 336 336 337 338 338 338 338 338 337 337 337 337 337 336 336 335 336 336 337 338 338 337 337 337 337 337 336 336 336 335 335 335 334 334 334 334 333 332 332 332 332 332 331
315 312 312 312 312 311 312 314 313 315 312 316 336 350 348 348 345 342 342 341 343 345 345 343 341 339 338 339 339 339 339 338 337 335 336 337 336 337 336 336 336 337 337 337 337 336 336 335 335 335 335 335 336 337 337 337 337 337 338 338 338 337 337 336 336 335 336 335 335 336 336 337 337 337 336 337 336 336 336 336 335 334 334 334 334 333 332 332 332 332 331 330 329 330 329 329 329
313 312 313 312 311 311 311 313 314 315 311 322 346 354 349 348 345 342 341 340 343 345 343 342 341 339 339 339 340 339 339 338 336 335 336 336 336 337 336 335 335 335 336 336 335 335 335 335 335 335 335 335 336 336 337 337 337 337 338 337 337 336 336 335 335 335 335 335 335 336 336 336 335 335 335 335 335 334 334 334 333 333 333 333 332 332 331 330 330 330 329 328 327 327 326 326 326
313 315 316 314 310 311 312 312 314 314 314 327 343 350 351 350 346 344 341 339 342 343 341 341 340 339 340 340 340 339 338 337 335 335 337 336 336 336 335 335 335 335 335 335 335 335 335 335 335 335 335 336 336 336 337 337 337 337 337 336 335 335 335 335 335 335 335 335 335 335 335 334 334 333 333 333 333 332 332 331 332 331 331 331 331 330 329 328 328 327 327 326 326 325 325 324 324
312 314 315 313 310 311 312 312 316 314 313 326 341 350 351 348 346 344 341 340 342 342 342 342 341 340 340 340 340 338 336 336 335 336 337 336 336 335 335 335 334 334 335 335 335 335 335 335 335 335 336 336 337 337 337 337 337 336 336 335 334 334 334 334 334 334 334 333 333 333 333 333 332 332 331 331 331 330 330 329 329 329 329 328 328 327 325 325 325 325 324 324 324 324 322 322 322
310 312 311 312 310 311 313 313 315 311 318 340 346 349 350 347 346 343 341 342 342 342 343 343 341 340 340 339 338 337 336 336 337 337 337 336 335 335 335 335 335 334 334 335 335 335 335 335 336 336 336 336 336 337 337 337 337 336 335 334 334 333 333 334 333 333 333 332 331 331 331 330 330 329 328 328 329 328 328 327 326 326 325 325 324 324 323 323 322 322 322 322 322 321 319 318 319
311 311 310 312 311 312 313 313 321 320 331 351 348 346 350 347 344 342 341 342 340 340 340 340 340 340 339 339 338 337 337 338 338 338 337 336 335 334 334 335 334 334 334 335 335 335 336 336 336 336 336 336 335 335 336 336 335 335 335 334 333 332 331 332 332 331 331 331 330 329 328 328 328 327 326 326 326 326 325 324 324 323 323 322 322 322 321 320 320 319 319 319 320 319 317 316 317
311 311 312 312 311 313 309 314 342 345 341 349 347 346 350 347 345 343 341 340 339 338 338 338 339 339 339 338 337 337 337 339 339 338 337 335 335 335 334 335 334 334 334 334 334 335 335 335 336 336 336 336 335 335 334 334 334 334 334 333 333 332 330 330 330 328 328 328 327 326 326 325 325 325 324 324 323 323 322 322 322 322 321 320 320 320 319 318 317 316 316 318 318 317 315 314 316
311 311 312 311 311 313 310 322 349 351 342 346 347 347 352 349 348 346 342 340 339 338 338 338 339 339 339 338 337 337 336 338 340 339 337 335 335 335 335 335 335 335 334 334 335 334 335 335 335 336 337 336 335 334 333 333 333 333 333 331 331 330 328 327 327 325 324 325 324 324 323 322 322 322 322 321 321 320 320 320 320 320 319 318 318 318 316 315 314 313 315 316 315 314 313 312 314
312 312 311 312 311 311 323 339 350 351 347 347 343 345 351 348 348 349 345 343 341 339 339 339 339 339 339 339 338 338 337 338 338 337 337 336 336 335 335 335 335 335 335 335 335 334 335 334 334 335 336 335 335 334 333 334 334 333 332 331 329 327 325 324 325 323 323 322 321 321 320 320 320 320 319 319 319 319 318 318 318 318 317 316 316 315 313 311 310 311 311 312 311 311 311 311 312
313 314 311 313 311 313 338 346 338 341 346 346 339 339 347 347 344 346 346 346 344 341 340 339 339 339 339 339 338 338 338 338 337 336 336 336 336 336 335 335 335 336 336 335 335 335 335 334 334 335 336 335 334 333 333 334 334 333 333 332 330 328 325 324 323 322 321 320 319 318 318 318 318 318 318 317 317 317 317 317 317 316 315 313 311 310 309 309 309 310 309 309 309 309 310 310 311
313 314 312 313 310 317 339 338 331 339 344 346 342 338 347 349 343 341 344 348 347 344 343 340 339 339 339 338 338 338 337 338 337 335 335 336 336 336 335 335 336 336 336 336 335 335 335 335 335 336 335 334 334 333 333 334 334 333 332 331 330 328 327 324 321 321 320 319 318 317 317 316 316 316 316 316 316 316 316 315 315 313 311 309 309 309 310 310 310 310 310 309 309 309 309 310 309
312 313 313 314 310 314 325 326 336 345 343 347 346 342 348 349 344 341 344 349 349 347 344 341 340 339 339 338 338 337 337 337 336 335 336 336 336 336 335 335 336 336 336 336 335 335 335 335 335 335 334 334 333 333 333 333 333 333 332 331 328 327 326 324 321 320 318 318 317 316 315 316 315 315 315 315 315 315 315 314 313 311 309 309 309 310 310 310 309 309 309 308 308 308 309 308 307
312 313 314 313 311 313 312 317 334 342 341 347 345 341 345 347 346 344 343 347 349 347 344 341 340 339 339 338 338 337 337 337 336 335 336 337 336 336 335 335 336 336 336 336 335 334 335 334 333 334 334 333 332 332 333 333 332 333 331 330 328 326 325 322 320 318 317 316 315 315 314 314 314 314 314 314 314 314 314 313 312 310 310 309 310 310 310 309 309 308 308 307 308 307 307 306 305
312 313 312 312 316 316 312 321 336 341 340 342 341 340 341 343 346 344 341 344 344 344 344 342 341 340 339 338 337 337 337 337 337 336 336 336 336 336 335 335 336 336 336 336 335 334 334 333 333 333 333 333 332 332 333 332 332 332 331 330 328 326 324 322 319 317 315 315 314 313 313 313 312 312 312 312 312 312 313 312 311 311 310 310 309 308 308 308 308 307 307 306 306 305 305 304 304
312 313 311 313 317 315 312 319 328 329 329 333 338 340 337 338 344 345 341 339 339 342 344 343 341 340 339 338 337 336 336 337 337 336 336 336 336 336 335 335 335 335 335 334 334 333 333 333 333 333 332 333 333 332 333 332 332 331 330 330 329 327 325 322 318 316 315 314 313 312 311 311 310 311 311 311 311 311 311 311 310 310 310 310 309 308 307 307 307 306 306 305 305 304 303 303 302
311 313 314 314 315 313 312 316 320 320 320 328 336 340 338 337 340 342 340 338 338 340 342 342 341 340 339 338 337 336 336 337 338 337 337 337 336 335 335 335 335 334 333 332 331 332 331 331 331 331 331 332 333 333 333 333 332 331 330 329 328 327 324 321 318 316 314 314 313 312 310 309 309 309 310 310 309 309 309 309 309 309 309 309 308 307 306 306 305 305 305 304 304 303 302 302 301
310 311 314 314 314 313 314 316 320 321 320 323 331 340 341 336 334 339 340 338 337 337 340 341 340 339 339 337 336 336 336 337 337 337 336 336 336 335 335 335 334 332 331 330 329 329 329 328 329 330 330 331 332 332 333 332 332 331 330 329 327 325 322 319 318 316 314 314 312 311 309 308 308 308 308 308 308 308 307 307 307 307 307 307 307 306 305 305 304 305 304 304 303 302 302 301 301
309 311 312 313 316 317 316 317 319 320 321 323 330 341 342 332 333 339 337 337 337 339 343 342 339 339 338 337 337 336 336 336 337 337 336 336 335 335 335 334 333 331 329 328 326 327 327 326 328 329 329 330 331 331 331 331 330 329 328 327 326 323 320 318 317 316 314 313 311 310 309 307 307 307 307 307 306 307 306 305 305 306 306 306 306 305 305 304 304 304 304 303 302 302 301 301 300
309 311 311 312 317 318 317 321 326 327 324 326 333 341 340 334 337 339 336 338 342 344 346 342 339 339 337 337 338 337 336 336 337 336 335 335 335 334 334 332 331 329 328 326 325 325 326 325 326 328 328 328 329 329 329 329 328 327 326 325 323 321 319 318 316 314 313 312 311 310 308 307 307 307 306 306 306 306 305 305 305 304 305 305 305 305 305 304 304 303 303 302 302 302 301 300 299
311 310 311 311 314 316 315 318 325 327 322 325 335 341 342 341 343 343 340 342 344 345 344 340 339 339 337 337 338 337 336 336 336 336 334 335 334 334 333 331 329 328 326 325 324 325 326 325 325 325 325 325 326 326 326 326 326 325 324 324 322 320 319 317 316 313 312 311 310 309 307 306 306 306 306 305 305 305 304 304 304 304 304 304 304 304 304 303 303 303 302 302 301 301 300 299 299
312 309 310 311 312 320 326 322 322 325 322 324 333 342 344 340 339 344 343 342 344 343 341 340 338 338 337 337 337 338 337 335 336 335 334 334 333 333 332 330 328 327 326 324 323 324 325 325 325 324 323 323 323 324 324 324 324 324 324 323 321 319 318 317 315 313 311 310 308 307 306 305 305 305 305 305 305 304 304 304 303 304 304 304 304 304 303 303 302 302 302 301 301 300 300 299 298
312 310 310 314 315 316 322 323 323 324 324 324 328 337 343 337 336 344 344 343 343 340 339 339 338 338 337 336 337 338 337 336 335 334 334 333 332 332 331 329 328 326 325 323 322 323 324 324 323 323 322 322 321 321 321 321 322 322 322 321 320 318 316 315 313 312 310 309 307 306 305 305 304 304 304 304 304 304 303 303 303 303 303 303 303 303 303 302 302 302 301 301 300 300 299 299 298
310 310 310 316 319 313 313 320 323 322 325 329 329 333 341 340 340 344 343 342 342 340 339 339 337 338 337 336 337 338 337 336 335 334 333 332 332 331 330 328 327 325 324 322 321 322 322 322 322 321 321 320 320 320 319 319 320 320 320 319 317 316 314 313 312 310 309 308 307 306 305 305 304 304 303 303 303 303 303 303 303 302 303 303 303 303 302 302 302 302 301 301 300 300 299 298 297
308 310 311 312 313 312 313 318 321 321 327 333 334 336 342 344 343 341 341 340 340 339 339 338 337 337 336 336 337 338 337 336 335 333 332 332 331 330 328 327 326 324 323 321 321 321 321 321 321 320 320 319 318 318 318 318 318 318 317 316 315 314 313 312 310 309 308 307 306 305 305 304 304 303 303 302 302 303 303 303 303 303 303 303 303 303 303 302 302 301 301 301 300 300 299 298 297
309 310 312 311 311 314 315 315 319 322 326 330 334 335 339 342 341 338 339 339 338 339 339 338 337 336 336 336 337 337 337 335 334 333 331 331 330 328 327 326 324 323 321 320 320 320 320 320 319 319 319 318 318 317 317 317 317 317 316 314 313 312 311 310 309 308 307 306 305 305 304 304 303 303 302 302 301 301 302 303 303 303 303 303 303 303 303 302 302 301 301 301 300 299 298 297 297
Wind_Speed
16 18 16 19 19 7 2 2 3 3 3 2 1 0 2 3 1 3 5 4 1 1 1 1 4 5 2 3 6 5 4 3 4 4 3 3 14 19 16 23 28 25 26 24 21 20 18 18 18 19 19 18 19 18 17 16 17 17 17 16 17 17 17 16 15 15 15 15 14 14 13 12 12 12 12 12 12 11 10 10 10 10 10 10 9 10 10 10 10 9 9 10 11 13 13 14 13
16 17 16 17 12 1 2 3 3 4 5 3 1 2 4 4 3 3 6 5 3 0 2 4 6 5 4 5 6 3 4 4 1 3 3 13 21 15 19 28 28 27 27 24 23 22 20 18 18 19 19 18 18 17 16 16 16 16 16 16 16 16 16 15 15 15 15 15 14 13 12 12 12 11 11 11 11 11 10 9 9 10 10 9 8 9 10 9 9 9 10 10 11 13 13 13 13
16 17 17 14 6 1 2 4 3 2 4 4 2 3 4 4 5 2 7 7 2 3 5 4 5 4 4 4 3 2 1 4 3 4 6 18 18 16 27 30 28 28 27 26 24 23 22 19 19 20 19 18 17 17 17 17 17 16 16 16 16 16 15 15 15 14 14 14 14 13 12 11 11 11 10 10 10 10 9 8 8 9 8 7 6 7 9 9 8 8 10 11 11 12 12 13 13
15 15 14 8 3 4 4 4 2 3 1 4 3 3 2 5 5 2 6 6 2 4 3 3 3 2 1 2 1 3 2 1 3 3 6 14 15 23 31 29 30 28 27 26 25 24 22 20 20 20 19 18 17 17 17 17 17 16 16 15 15 15 14 14 14 14 14 14 14 12 11 11 10 10 10 9 9 9 8 8 8 7 6 6 5 6 7 8 8 8 10 11 11 11 12 12 12
13 10 8 3 2 2 3 2 2 3 2 3 2 6 5 6 3 1 3 3 4 5 2 3 1 2 2 2 1 2 2 4 4 3 9 13 19 28 29 29 30 28 27 26 25 25 22 21 21 20 19 18 17 17 17 17 16 16 15 15 15 14 14 14 13 13 13 13 13 12 11 10 9 9 9 8 8 8 7 7 6 5 5 6 6 6 7 9 9 9 10 10 11 11 12 12 11
12 7 4 4 2 1 2 2 1 1 4 4 2 6 6 8 4 2 2 5 6 7 4 4 3 1 3 2 2 2 2 5 6 7 13 19 25 29 28 29 29 28 28 26 25 24 23 22 21 21 19 18 18 18 18 17 16 16 15 15 14 14 13 13 13 13 13 12 12 11 10 9 8 7 7 6 6 6 5 5 5 4 5 5 5 5 7 10 10 9 10 11 11 11 11 10 9
11 6 3 5 2 1 3 3 3 3 4 5 4 5 8 9 4 1 3 5 6 6 3 3 5 5 1 0 3 4 4 8 9 11 18 25 29 29 29 29 29 29 27 27 25 23 23 22 22 21 19 18 18 18 18 17 16 15 15 14 14 13 13 12 12 12 12 11 10 9 8 7 5 5 5 5 4 4 4 4 4 4 5 5 5 5 7 9 10 9 9 9 10 10 10 9 8
7 3 1 4 2 3 4 3 3 4 3 4 5 6 10 10 3 2 5 6 4 6 3 6 6 5 1 2 3 6 11 12 14 19 25 29 30 28 28 29 30 29 28 27 25 23 23 22 22 21 20 19 19 19 17 17 16 15 15 14 13 12 12 11 11 12 11 10 9 8 6 5 3 2 2 3 3 4 5 4 4 4 5 5 5 6 6 7 9 8 7 7 8 9 9 8 7
4 2 1 2 2 1 2 1 3 3 4 5 6 9 12 9 3 3 5 5 4 4 4 7 5 4 1 5 4 4 12 18 23 26 28 28 28 27 27 29 31 30 29 28 26 25 23 22 22 21 21 20 19 18 17 17 16 15 14 13 13 12 11 11 11 11 10 9 8 6 5 4 2 1 1 1 2 3 4 4 4 4 5 7 7 6 6 7 8 8 7 6 7 8 8 7 6
3 2 1 1 2 1 2 2 3 3 5 5 6 10 11 10 8 6 6 5 3 3 4 6 5 6 6 6 3 2 11 25 29 26 24 25 25 26 26 28 31 32 31 29 27 26 24 22 22 22 22 21 20 18 18 17 16 15 14 13 13 11 11 11 11 10 9 7 6 5 4 4 3 2 1 1 0 1 2 3 4 5 7 9 8 7 6 6 7 8 7 6 7 7 7 6 5
2 3 2 2 2 2 3 3 4 3 6 4 5 10 9 8 7 8 9 7 0 6 5 5 6 7 8 5 3 8 18 26 29 25 22 23 24 26 26 26 29 31 32 30 28 26 24 22 22 23 22 21 20 19 18 17 16 15 14 13 12 11 11 10 10 9 7 6 5 4 4 5 4 3 2 2 2 1 2 2 3 6 8 9 9 7 6 6 6 7 7 7 6 7 6 5 5
2 1 4 3 3 4 4 3 4 4 6 4 6 8 3 4 6 9 10 8 2 6 5 3 6 7 7 4 3 11 18 19 24 25 22 22 24 26 27 27 27 29 30 30 28 26 25 23 22 22 22 21 20 19 18 17 16 15 14 13 12 11 10 9 9 7 6 5 5 5 5 6 6 6 6 5 5 5 4 4 5 6 8 9 9 8 6 5 5 6 7 7 6 6 5 5 4
3 2 5 2 4 4 4 3 4 3 4 3 6 5 2 4 7 8 6 7 2 5 2 4 8 6 6 4 6 9 12 16 21 23 23 25 25 26 26 26 26 27 28 29 28 26 25 23 23 21 20 20 19 19 18 17 16 15 14 13 12 11 10 9 8 7 6 5 5 6 8 9 9 8 9 9 9 8 6 6 6 6 7 8 8 8 6 5 5 5 6 6 6 5 4 4 3
3 3 5 3 2 4 4 2 2 2 4 5 5 5 2 3 6 6 4 6 3 3 3 8 9 9 8 6 6 5 10 19 22 23 25 25 24 24 24 24 24 24 25 26 26 25 24 22 21 20 19 20 19 18 17 17 16 15 15 13 12 11 10 9 7 7 6 6 7 8 9 9 9 9 9 9 10 10 9 7 6 6 6 7 8 8 7 5 5 5 5 5 5 4 4 3 2
4 2 4 3 2 2 3 3 4 4 5 6 5 3 4 6 5 6 4 1 1 1 6 8 4 5 8 8 7 7 16 25 24 25 26 23 21 21 21 22 22 22 23 24 24 24 23 21 20 20 19 19 19 18 17 17 16 16 15 13 12 10 10 9 8 7 8 8 9 10 10 10 10 9 9 9 10 11 10 9 7 6 6 7 8 8 7 5 5 4 4 4 3 3 2 2 2
3 3 4 2 3 3 3 3 4 4 5 5 6 3 6 10 2 3 4 4 5 3 5 3 1 4 8 8 12 18 26 29 26 26 24 21 19 19 19 20 20 21 22 23 23 22 22 21 21 20 19 19 19 18 17 16 16 15 14 13 12 10 10 8 8 9 10 10 9 10 10 10 9 8 8 8 9 10 10 10 9 8 7 7 8 8 7 5 4 3 2 2 2 2 1 1 2
2 3 2 2 3 5 4 4 5 5 5 5 7 5 5 10 3 3 4 9 10 7 7 4 3 7 10 13 23 31 33 30 28 27 24 21 19 18 17 17 18 19 21 22 23 22 22 21 21 21 20 19 19 18 17 16 16 15 14 13 11 10 9 8 9 10 10 9 9 9 9 9 9 8 8 7 8 8 9 9 9 9 8 7 7 7 6 5 3 1 0 1 2 2 2 1 1
2 3 3 4 5 5 6 7 6 4 4 5 7 3 3 8 3 2 5 11 11 11 9 10 11 11 15 23 32 34 34 32 30 28 23 20 19 18 15 14 16 16 20 22 22 24 24 23 22 22 21 20 19 18 17 16 16 15 14 13 12 10 9 8 9 10 9 8 7 7 7 7 7 7 7 7 7 7 7 7 7 8 8 7 6 5 4 3 1 0 2 2 3 3 3 2 1
4 3 5 6 6 6 7 8 6 4 6 7 7 1 2 6 3 1 3 5 9 13 9 12 15 13 17 23 30 31 32 31 30 29 24 21 20 18 16 15 16 18 22 25 25 26 26 25 24 23 22 21 20 19 18 17 16 15 14 13 11 10 9 9 9 10 9 7 6 6 6 5 5 5 6 6 6 6 6 5 5 5 6 6 5 4 3 2 2 2 2 3 4 4 4 4 4
4 3 5 6 6 7 6 7 7 8 7 7 8 1 1 4 2 0 6 6 7 11 10 13 14 13 15 18 24 27 28 27 28 29 25 23 22 23 24 22 22 25 27 28 28 27 27 27 25 25 24 23 21 20 19 18 16 15 14 12 11 11 10 10 10 10 8 7 5 4 4 3 3 3 4 3 3 4 4 4 3 3 3 4 3 3 3 3 3 3 4 4 5 5 5 6 7
3 4 5 6 7 7 7 8 9 8 7 6 6 4 5 2 4 2 7 8 4 8 11 17 19 18 18 17 21 24 24 24 25 26 25 26 28 30 32 32 31 30 28 27 28 28 28 28 27 25 24 23 22 21 20 18 17 15 14 13 12 11 10 10 10 8 7 5 5 4 3 2 1 1 1 2 2 2 3 2 2 2 2 2 2 2 2 3 3 4 4 4 5 6 6 6 7
2 5 6 6 7 7 8 9 9 8 6 5 6 6 5 1 5 2 6 7 4 8 11 17 23 22 23 21 20 20 20 20 21 24 26 28 30 27 27 30 30 28 26 26 27 29 28 28 27 25 24 22 21 21 20 18 17 16 15 14 13 12 11 10 9 7 6 4 4 4 3 1 1 2 1 1 1 1 1 1 1 2 2 2 2 2 2 3 4 4 5 4 5 6 6 7 7
3 4 5 6 7 7 6 6 9 8 7 8 7 4 1 5 4 2 3 4 5 7 12 16 20 23 26 24 21 20 18 18 20 25 27 26 24 22 23 25 26 26 26 26 27 29 28 27 26 25 24 23 21 20 19 18 17 16 15 14 13 13 11 9 8 7 7 6 5 4 3 2 2 4 4 4 3 1 1 1 1 1 2 2 3 3 2 4 4 5 5 5 6 6 6 7 7
6 5 3 5 7 8 7 6 8 8 10 10 4 2 1 5 3 1 2 2 3 11 13 14 16 19 22 20 19 19 19 19 22 25 26 25 23 24 27 27 26 25 24 24 26 27 27 26 25 25 25 24 23 21 19 18 17 16 16 15 13 12 11 9 8 8 8 8 6 5 4 3 3 5 6 6 5 2 3 3 3 2 2 3 3 3 3 4 4 5 5 5 6 6 6 7 7
8 7 3 3 5 7 8 8 7 7 8 6 2 2 0 6 5 3 4 4 6 13 14 14 15 15 16 17 18 16 16 18 20 20 19 22 22 23 26 26 24 22 22 23 24 25 26 26 24 24 24 23 23 22 21 18 17 17 16 15 13 12 11 9 9 9 9 9 7 7 6 5 5 5 5 5 5 3 3 4 4 4 3 3 3 3 3 4 4 4 5 5 6 6 7 8 8
7 7 4 4 5 6 8 10 10 8 4 3 2 2 5 7 5 5 4 4 7 12 14 14 15 15 14 15 16 15 15 16 16 16 16 18 20 21 23 24 23 22 22 22 22 23 24 24 23 22 21 21 22 23 22 19 18 17 15 14 12 11 10 8 10 11 10 10 9 9 8 7 6 4 4 3 4 4 4 4 4 4 4 3 4 3 3 3 4 4 4 5 5 6 7 8 9
3 6 7 8 7 6 5 8 12 10 5 5 5 4 7 3 2 3 4 7 9 12 13 13 14 14 14 13 13 13 13 14 15 15 15 16 18 20 22 23 21 21 22 21 21 22 23 23 22 20 20 19 21 23 22 21 19 16 14 13 11 11 10 9 11 12 12 11 10 10 8 8 7 7 6 4 3 3 3 4 4 4 4 3 3 3 3 4 4 4 4 4 5 6 7 8 8
5 5 6 8 9 9 7 7 9 7 5 8 8 5 4 3 1 7 8 9 10 13 13 12 12 12 12 13 11 9 9 12 16 15 15 17 18 20 22 22 21 21 22 22 22 22 22 23 23 21 20 19 20 23 23 21 18 16 13 12 11 10 9 11 14 14 13 12 10 9 8 8 8 8 7 5 3 2 3 3 4 4 3 2 1 2 3 4 4 4 4 4 5 6 7 7 7
5 5 5 6 6 10 12 11 8 5 5 7 9 4 1 4 1 9 11 10 9 10 12 11 11 9 9 10 8 6 7 11 14 14 16 19 21 22 22 22 22 22 22 24 24 22 22 23 23 22 20 19 20 23 23 20 17 15 13 12 12 11 11 13 15 15 13 11 10 9 9 9 9 8 7 6 4 2 3 4 4 4 2 1 1 2 3 4 4 4 5 5 6 7 7 7 7
3 3 4 3 3 7 12 11 8 7 5 8 10 3 4 2 6 10 9 11 12 10 10 9 9 7 7 6 5 5 6 8 11 12 15 18 21 22 21 22 23 23 23 25 23 22 23 24 23 22 21 20 21 22 21 18 15 14 13 13 13 13 14 15 15 14 12 11 11 10 10 9 9 8 6 5 5 3 4 4 4 3 1 0 1 2 2 3 4 5 5 5 6 6 7 7 8
1 3 3 4 5 6 8 8 9 8 5 9 10 5 4 6 9 8 7 11 13 12 10 9 8 7 6 5 6 6 6 7 9 11 14 17 19 19 20 22 23 24 25 25 22 22 23 23 22 22 22 22 22 20 19 17 16 16 15 14 14 14 15 14 13 11 10 10 9 9 9 8 7 6 6 6 6 5 4 4 4 3 2 1 0 1 2 2 3 5 5 6 6 6 6 7 9
1 4 4 6 7 4 5 6 11 12 5 9 11 5 3 8 9 6 7 10 11 11 10 8 8 7 7 6 6 5 5 7 8 9 12 15 17 17 20 21 22 24 25 24 22 21 21 20 21 22 21 22 22 20 18 18 18 17 16 14 13 13 13 12 11 9 8 8 6 6 8 7 7 7 8 7 7 6 6 6 6 5 3 2 1 1 1 2 3 4 5 6 6 7 8 9 10
2 5 7 8 8 4 4 6 9 13 7 5 7 5 3 6 9 7 8 10 10 10 10 10 9 8 7 6 6 6 6 6 6 8 12 14 15 15 17 19 20 22 22 22 21 20 20 19 20 21 21 21 20 20 20 19 19 17 15 14 12 11 11 10 8 7 7 6 6 6 6 7 8 9 9 8 8 8 7 7 6 5 3 2 2 2 2 3 3 3 5 6 7 8 10 11 12
5 6 6 5 6 7 4 6 5 10 11 5 3 5 5 7 11 11 10 11 10 10 11 11 9 8 7 6 7 7 7 6 5 8 11 12 13 12 13 15 17 19 20 21 21 21 21 20 21 21 20 20 20 21 21 20 18 16 14 13 11 10 9 8 8 8 8 8 8 8 9 10 11 12 11 10 9 8 8 7 6 5 3 3 3 3 4 4 4 4 5 6 8 9 10 12 13
9 7 5 2 4 6 7 6 3 8 11 7 5 5 5 8 12 11 11 11 10 10 10 9 9 8 8 8 9 8 7 6 5 8 10 11 11 11 12 14 15 18 19 20 21 21 21 20 20 20 20 20 20 20 20 19 17 16 14 12 11 10 10 10 11 10 11 11 11 12 13 13 13 13 11 10 9 8 8 7 5 4 3 2 4 5 5 5 5 6 6 6 8 9 10 12 13
8 6 5 5 4 4 7 8 6 8 9 7 8 7 7 11 13 11 11 10 8 9 7 7 8 8 8 8 8 8 8 6 6 9 10 10 11 12 13 15 16 18 20 21 21 21 21 20 18 18 19 19 20 20 19 18 17 16 14 14 13 13 13 13 13 13 13 13 14 13 13 12 11 10 9 8 7 7 6 5 3 2 2 4 5 5 5 6 6 7 7 7 8 8 10 12 14
5 5 4 6 6 4 7 7 6 7 8 5 6 9 11 13 13 12 12 10 8 10 10 9 9 8 8 10 9 9 7 6 8 11 11 12 12 13 15 17 18 18 19 21 22 21 20 19 18 18 18 19 20 20 19 19 18 17 17 17 17 16 15 15 15 15 15 14 13 12 11 10 9 8 7 6 5 4 3 3 1 1 2 3 4 4 5 5 6 7 7 8 9 10 12 14 16
3 4 3 4 6 5 6 7 6 6 6 2 3 10 11 13 12 10 11 11 11 13 13 12 11 9 9 10 10 9 6 6 9 11 13 15 15 15 16 18 20 20 19 21 22 22 20 19 19 18 18 19 19 19 19 19 19 19 19 20 20 19 17 17 17 16 15 13 12 11 10 8 7 6 5 3 2 2 1 1 2 2 3 3 3 4 4 5 6 7 7 8 9 10 13 16 17
2 3 4 2 3 3 5 5 2 2 3 1 5 9 8 10 10 10 11 9 7 9 9 10 12 12 10 11 10 9 9 9 9 9 13 18 17 16 18 18 20 21 21 21 21 20 20 19 19 19 19 19 19 18 18 18 19 19 20 21 21 20 19 18 17 16 14 12 10 8 7 5 4 3 3 2 1 2 2 2 3 3 3 4 3 4 5 7 8 9 9 8 7 9 12 16 17
5 4 5 2 3 3 4 3 3 4 3 5 8 7 5 6 6 6 9 6 3 5 6 6 9 10 11 11 10 11 11 10 11 9 10 16 17 16 18 18 19 20 20 20 20 20 20 20 20 20 19 19 19 18 17 18 19 20 21 22 22 20 20 18 17 15 13 11 9 7 5 3 2 2 3 3 3 3 3 3 3 3 4 5 4 5 7 9 10 10 10 8 7 9 12 17 18
6 5 5 3 4 3 3 3 3 5 4 7 10 6 4 6 6 6 6 5 5 7 7 7 8 7 7 9 9 10 11 10 11 10 9 13 15 16 17 19 19 19 20 20 21 21 21 21 20 20 20 20 19 18 18 20 22 23 23 23 21 20 19 18 16 14 12 10 8 7 5 3 3 3 4 4 4 4 4 4 5 5 6 6 6 7 9 10 11 11 10 9 9 10 13 17 19
5 5 6 6 5 3 2 5 5 5 2 4 7 5 2 3 6 7 5 6 8 8 9 9 9 8 7 8 9 9 9 9 9 9 10 12 14 17 18 19 19 20 20 21 21 22 21 20 20 20 20 20 19 18 20 23 26 26 26 25 23 21 18 16 15 14 12 10 8 7 7 5 4 4 5 5 5 4 5 5 6 6 7 8 8 9 11 12 14 15 15 13 14 13 13 16 18
3 5 8 8 5 3 4 6 5 3 3 4 2 4 2 1 4 7 6 8 9 8 10 11 10 9 9 9 9 10 10 9 8 9 10 11 15 17 19 19 20 20 20 21 21 21 21 20 20 20 20 20 20 21 23 26 27 27 26 25 24 23 20 16 15 14 12 11 10 8 7 6 6 5 5 5 5 5 5 6 7 7 9 10 11 13 16 18 19 20 19 18 18 15 14 17 17
4 6 10 10 6 4 5 5 3 2 4 2 1 2 3 3 5 6 8 10 9 9 11 12 11 11 10 10 10 11 10 9 9 10 10 12 15 18 20 20 20 20 21 22 21 20 20 20 20 19 19 20 21 23 26 27 28 27 26 24 23 22 21 19 16 14 13 12 11 9 8 8 6 6 6 5 5 4 6 7 8 9 12 14 16 18 20 20 20 19 18 18 18 17 17 20 20
4 6 10 9 8 7 5 4 2 2 5 3 5 2 3 3 4 4 6 11 11 12 15 14 13 13 12 12 11 11 11 9 9 11 11 13 16 18 20 20 20 21 23 23 21 19 19 19 20 19 19 20 21 24 27 27 27 28 26 24 22 20 19 19 17 15 13 12 11 11 9 8 7 6 6 4 4 6 7 9 11 12 15 17 18 19 19 19 19 19 18 18 19 21 21 21 23
4 6 7 5 5 5 5 4 3 4 4 5 9 6 3 2 4 5 4 8 12 14 14 14 13 13 13 12 12 12 11 10 9 10 11 13 17 18 20 21 20 22 23 23 21 19 19 20 20 20 20 21 24 26 28 27 27 27 26 24 24 22 20 20 18 16 15 13 13 12 10 9 8 7 5 4 6 8 10 11 12 14 16 18 19 19 19 19 19 19 20 20 21 23 23 23 24
3 6 5 3 3 1 2 2 4 4 2 6 11 10 6 2 5 7 6 11 18 15 11 12 13 14 14 13 13 12 11 10 9 10 11 14 19 19 20 21 21 22 22 22 21 20 21 21 22 22 21 22 25 26 26 26 26 26 25 24 24 23 22 21 20 18 17 15 14 12 10 9 8 8 8 9 10 11 12 13 14 15 16 17 18 18 19 19 19 19 20 21 22 23 23 24 25
4 4 4 2 2 2 3 4 3 3 6 7 10 10 6 5 5 8 13 16 16 14 13 16 18 17 16 14 13 12 11 10 10 11 11 12 16 18 20 21 21 22 22 22 23 22 22 22 23 23 21 22 24 25 25 24 24 24 24 23 23 22 22 22 22 21 19 17 14 12 11 11 10 11 12 13 13 13 15 16 16 16 16 17 18 18 19 19 19 19 20 21 21 22 22 23 25
5 5 6 4 1 1 1 0 1 4 7 5 9 11 5 6 5 10 20 20 14 14 16 18 20 20 17 14 13 12 10 11 11 11 11 10 11 16 20 21 22 23 23 23 24 24 24 23 24 23 21 22 23 24 24 24 24 23 23 24 23 23 23 23 23 21 19 16 15 14 13 13 13 13 14 15 15 15 16 17 17 17 17 17 18 18 19 18 18 19 20 21 21 22 22 23 25
9 6 6 6 4 4 4 4 2 4 6 4 7 10 4 4 4 10 20 22 18 15 12 12 14 15 14 13 12 11 11 11 10 11 12 10 10 15 19 20 21 23 24 25 25 26 26 24 24 24 22 22 23 24 24 24 24 23 23 23 22 23 23 23 22 20 19 17 15 15 13 13 14 15 15 16 16 16 17 17 18 18 18 18 18 18 19 19 19 19 20 21 22 23 23 24 24
8 5 6 5 4 6 6 5 4 4 5 2 4 6 4 3 4 8 14 18 15 9 4 7 8 8 9 10 10 11 11 11 9 10 12 11 13 17 18 19 20 23 25 26 25 26 27 26 25 25 23 22 23 24 24 24 23 23 22 22 21 22 23 21 20 20 19 18 16 15 13 13 15 16 16 17 17 17 18 19 18 19 19 19 19 18 19 18 18 20 21 21 22 21 21 23 23
6 4 6 5 5 5 3 4 6 4 2 1 3 4 4 5 4 6 5 10 10 7 7 9 10 9 10 10 11 11 11 11 10 10 12 13 16 18 18 19 21 23 26 26 26 27 28 27 26 25 24 23 23 23 24 23 23 22 21 21 21 22 22 21 21 20 19 17 15 14 14 15 17 18 18 17 17 17 18 18 19 19 19 19 19 18 18 18 18 19 20 21 22 20 21 22 22
4 5 6 6 5 6 2 2 2 3 3 3 2 3 3 2 4 6 3 10 9 9 9 10 12 13 13 11 11 11 12 12 11 10 12 13 16 19 20 20 22 24 26 26 26 28 29 28 26 26 25 23 23 22 22 22 22 21 20 21 22 22 22 21 21 21 19 17 16 15 16 18 18 18 18 17 17 17 17 17 18 19 19 18 19 18 18 18 17 18 19 20 21 20 21 22 21
6 7 7 4 4 3 2 1 1 3 3 4 1 4 3 2 2 3 4 10 9 9 11 11 11 13 14 12 11 12 13 13 11 11 12 13 16 19 21 22 23 25 26 25 26 28 29 28 27 26 25 24 23 21 21 20 20 21 21 22 22 22 22 21 21 21 19 18 18 17 18 19 18 18 18 17 17 17 17 17 18 18 18 18 18 18 18 17 17 18 19 19 19 19 20 21 19
6 6 6 6 4 3 1 2 2 1 3 3 2 2 3 4 5 3 7 11 11 11 11 12 14 15 15 13 12 13 13 12 10 10 11 12 15 19 22 23 24 26 25 24 26 27 28 28 26 25 24 23 22 21 20 20 19 20 22 22 22 22 22 22 22 21 19 19 19 19 19 19 19 18 17 17 16 16 17 17 17 18 18 18 18 18 17 17 17 18 19 19 18 17 19 20 18
4 3 5 5 4 4 3 3 3 3 3 2 1 2 3 5 6 9 13 15 15 14 13 14 16 17 15 14 13 13 14 14 11 10 11 11 15 20 23 24 25 26 26 25 27 28 28 27 25 25 24 22 22 20 20 20 19 20 21 22 22 23 23 23 22 21 20 20 19 19 19 19 18 17 16 15 15 15 16 16 17 17 18 18 18 18 17 16 17 17 17 17 16 15 17 18 17
6 4 5 6 4 3 3 3 2 3 3 3 3 1 5 6 5 11 15 15 16 17 16 15 15 16 15 14 14 13 13 14 12 10 11 11 14 20 24 26 25 25 26 26 27 28 28 27 26 25 24 23 22 21 20 20 20 20 21 22 23 24 24 23 22 21 21 20 19 19 20 19 18 16 14 14 14 14 15 15 16 17 17 18 17 17 16 15 17 17 16 16 15 15 16 16 15
8 7 5 6 6 5 4 4 2 2 3 4 4 3 7 7 5 10 13 13 16 18 18 16 15 16 16 14 15 14 13 14 13 12 11 10 14 18 23 26 26 24 25 25 26 28 29 28 27 25 24 23 22 21 20 20 20 21 21 22 23 24 24 23 22 21 20 20 20 20 20 18 17 15 13 12 12 13 14 15 16 17 17 17 17 17 16 15 16 16 16 15 14 14 15 15 14
Wind_Direction
340 334 333 330 325 324 294 54 47 327 64 54 104 68 265 237 281 15 335 317 308 264 232 324 120 126 130 146 160 153 116 159 169 141 194 177 143 151 162 162 156 151 146 141 142 143 143 146 146 145 140 136 137 136 134 130 124 123 121 120 119 117 116 113 113 111 111 109 108 109 108 111 111 113 114 115 115 111 109 103 98 93 87 76 62 65 67 65 67 76 92 102 110 113 117 119 114
340 333 331 331 327 339 306 67 74 329 35 2 226 155 243 288 341 22 317 279 213 323 76 86 88 74 41 87 114 105 55 7 36 127 115 133 136 148 161 160 157 150 144 142 144 143 144 147 148 145 139 137 137 135 132 127 125 124 122 122 120 118 117 114 113 112 111 110 111 109 109 112 112 114 115 116 115 111 109 105 99 89 82 70 57 64 69 68 69 81 100 107 112 117 119 122 122
338 334 332 334 332 59 5 47 75 28 28 319 276 195 216 307 320 335 298 276 213 86 86 82 68 47 27 54 56 54 54 1 53 85 114 139 138 151 160 158 155 148 144 144 146 145 145 146 147 144 139 138 137 135 131 128 128 126 125 124 122 120 117 115 113 113 113 112 111 110 111 111 112 114 115 116 114 112 109 101 93 85 80 70 58 65 69 66 69 89 108 112 115 123 123 126 129
336 334 331 335 351 27 49 46 99 114 24 287 288 273 288 306 300 342 286 276 136 113 80 45 37 346 40 111 50 64 128 83 115 100 125 152 152 154 157 154 151 147 145 146 147 145 143 146 146 143 141 139 138 135 132 132 132 128 128 125 123 121 118 115 113 115 113 111 111 110 111 110 113 114 115 117 116 115 110 102 96 92 84 77 70 66 69 69 74 96 112 117 121 127 129 132 133
334 332 332 360 75 22 83 75 99 113 206 220 284 297 304 287 274 72 272 245 185 189 176 102 52 316 70 115 104 104 147 103 131 141 121 146 153 151 153 151 149 146 146 147 146 143 142 146 146 145 143 142 140 135 135 135 134 131 128 126 124 121 119 116 113 113 110 110 111 110 111 110 113 113 115 114 115 115 114 113 108 108 93 86 81 65 66 69 78 105 121 126 131 134 136 136 134
337 335 348 38 95 167 114 111 134 186 232 181 222 279 283 283 275 119 210 235 233 228 198 136 145 134 78 54 67 101 155 121 130 139 129 143 151 150 151 150 147 145 146 146 144 142 144 147 147 147 145 144 140 136 138 137 135 132 129 127 125 121 119 117 114 112 110 110 110 110 108 109 114 115 117 115 121 123 124 129 126 127 108 96 94 76 67 68 78 109 131 136 139 139 138 137 135
346 337 360 47 47 16 104 152 180 223 240 178 207 264 269 279 281 157 196 227 262 262 234 146 135 109 80 131 71 34 69 119 126 138 142 145 150 150 150 149 145 144 145 145 143 143 147 149 148 147 145 144 140 139 140 137 136 133 131 128 124 124 121 118 116 113 111 109 107 106 100 101 109 114 125 129 139 147 147 151 155 153 127 115 118 95 74 73 81 106 135 143 144 144 142 142 138
353 342 38 80 41 21 100 168 201 218 245 210 238 261 261 265 245 209 208 195 220 246 199 155 136 99 327 30 68 21 57 104 129 139 143 143 148 150 151 150 145 143 144 143 141 145 149 149 148 147 144 142 141 141 141 138 137 134 131 128 127 127 124 123 120 115 112 110 107 102 94 91 95 105 128 143 154 164 167 167 163 170 154 142 137 110 84 80 84 100 130 149 152 150 149 146 142
15 17 33 89 112 47 84 212 243 237 260 259 270 272 274 279 264 250 244 226 205 226 171 156 149 125 138 53 73 16 66 110 127 132 139 142 148 150 152 152 147 144 144 144 144 148 150 151 150 146 143 142 143 143 142 140 137 134 131 131 133 132 130 129 122 118 115 111 106 97 89 80 73 79 97 166 190 189 185 178 158 165 162 148 142 122 99 90 86 94 113 145 157 157 155 150 144
31 16 95 82 114 149 314 270 256 255 258 260 271 274 287 300 302 296 286 275 201 163 136 117 95 118 120 76 62 38 102 122 124 127 138 144 149 151 152 152 151 147 146 147 148 149 149 151 148 143 142 144 145 144 143 141 139 137 137 139 140 139 135 129 123 120 115 108 100 89 79 70 58 46 32 22 5 219 197 189 171 163 159 152 146 130 113 99 91 92 96 126 154 162 162 156 148
37 344 111 110 97 179 228 238 255 255 269 301 288 272 280 292 309 307 304 310 44 132 148 101 92 112 97 79 61 100 120 125 125 130 142 146 150 152 152 151 152 151 149 148 148 148 146 148 146 143 145 145 146 146 144 144 143 143 145 147 146 144 136 127 123 117 110 100 91 84 74 73 65 51 51 52 50 73 123 155 160 157 156 154 147 133 121 105 93 91 88 105 140 164 167 166 160
110 307 82 127 166 195 208 211 247 255 287 325 284 270 279 301 314 300 305 321 348 135 173 138 137 128 86 76 94 113 117 120 128 134 143 147 150 152 153 152 153 151 148 147 146 145 143 145 146 146 148 147 147 148 147 147 147 149 151 151 148 144 136 127 119 110 101 93 89 88 86 83 74 65 68 66 63 73 94 113 132 147 154 153 146 136 125 109 95 88 84 92 119 154 172 179 177
145 168 101 160 195 177 176 194 248 272 298 284 253 266 9 319 290 272 303 323 244 161 198 135 142 114 86 97 115 122 115 124 133 137 145 148 151 152 153 153 151 148 144 144 143 141 143 146 147 148 150 149 150 151 151 152 153 153 153 152 148 144 135 125 114 108 101 97 99 97 95 88 78 71 66 60 57 62 75 94 117 140 150 150 145 138 131 115 100 90 84 86 98 124 151 171 183
164 166 129 186 202 151 164 183 247 236 266 258 251 277 307 272 263 271 321 324 272 170 116 121 125 95 103 126 123 136 128 139 141 142 149 147 149 149 149 148 144 143 141 141 140 140 144 146 148 150 152 151 152 153 155 157 156 155 153 152 148 143 134 126 118 115 110 108 107 102 98 90 84 76 67 60 55 57 63 76 100 126 141 146 145 141 138 125 110 100 91 89 89 99 113 128 152
175 148 107 153 167 169 200 196 200 201 246 258 250 285 304 265 257 305 308 234 257 101 102 116 105 85 144 158 146 161 145 147 147 145 144 139 142 141 142 142 141 143 142 142 141 143 146 148 151 153 156 155 156 158 159 159 157 155 154 152 148 143 135 129 126 120 115 112 109 104 99 95 92 82 73 65 60 57 57 66 82 104 125 137 144 145 145 142 128 115 102 93 85 82 90 103 102
162 105 87 152 187 207 221 199 182 198 244 251 257 312 315 287 282 336 306 132 115 61 75 113 323 106 150 152 140 148 147 147 143 137 131 126 130 132 138 141 144 147 146 147 146 148 151 153 157 158 160 160 162 162 161 160 157 157 155 152 148 143 139 134 129 124 117 111 107 103 99 97 93 86 82 70 64 60 57 61 69 87 107 125 139 148 152 155 146 132 110 87 67 53 32 63 64
97 95 119 184 190 204 195 194 187 193 241 248 268 293 281 288 12 68 17 79 98 69 52 62 62 103 127 136 138 141 144 142 133 127 121 123 130 135 143 145 148 150 150 153 152 155 157 158 161 162 163 165 166 164 163 162 160 161 157 153 150 146 143 138 135 130 120 107 104 100 97 94 88 84 83 78 72 65 60 60 62 74 90 110 129 146 157 164 166 169 63 9 8 12 3 3 70
129 130 174 197 186 197 184 194 196 183 239 242 256 275 239 283 338 112 63 69 86 79 69 76 77 92 115 129 134 137 138 136 132 129 127 135 144 147 152 152 151 153 154 158 160 162 164 164 165 165 166 167 168 166 164 164 166 165 159 155 152 151 149 145 142 137 127 113 107 99 97 93 88 85 82 83 77 69 65 61 58 64 75 90 106 126 145 160 178 261 332 335 336 345 354 339 328
175 144 183 208 188 201 199 193 197 198 229 245 258 250 194 271 315 193 135 100 95 93 90 89 92 102 114 125 130 134 138 138 139 139 143 152 157 157 156 159 161 167 168 167 168 169 169 169 170 169 169 169 170 169 166 167 170 167 159 156 156 156 155 151 147 142 137 127 116 107 106 100 97 98 91 84 71 69 68 64 60 58 65 71 81 95 99 95 70 27 5 2 359 358 0 352 337
183 150 194 218 198 215 223 198 208 219 225 248 262 264 284 281 6 354 144 126 107 119 130 118 121 129 127 131 134 139 142 144 148 148 153 158 163 165 163 167 174 180 179 174 172 172 173 173 173 174 173 172 173 171 168 169 170 166 160 157 157 158 157 156 154 148 142 137 130 118 114 110 113 115 108 98 71 62 58 66 70 57 60 58 68 82 75 63 46 29 10 7 10 7 3 356 350
183 190 200 204 191 213 227 213 218 224 220 237 265 313 307 289 60 58 135 124 129 165 165 143 143 144 139 141 143 147 149 151 155 155 159 164 173 176 171 172 178 184 182 175 173 174 176 175 175 175 175 174 176 173 170 170 169 166 162 159 157 153 152 156 161 158 151 149 147 139 132 122 130 131 119 122 90 37 16 41 60 44 51 53 71 82 63 45 28 22 14 11 9 4 3 3 0
199 218 200 188 179 203 226 217 220 230 225 239 269 286 280 134 62 15 147 152 195 190 179 155 149 150 149 149 150 153 155 158 162 165 171 176 179 177 170 170 177 184 183 179 176 176 178 177 175 175 176 176 178 176 172 170 170 167 162 162 163 156 152 157 168 176 176 175 169 168 169 175 256 284 309 345 25 355 342 15 29 15 21 30 61 70 55 46 39 32 25 23 15 7 7 8 5
233 239 197 193 184 199 231 217 217 225 224 235 244 256 17 87 63 346 152 208 223 158 159 159 151 150 149 148 151 157 163 165 171 178 179 178 175 166 163 170 180 185 184 183 180 179 180 178 176 176 177 178 180 179 175 172 170 166 161 165 167 162 160 163 174 189 195 194 187 190 200 223 270 291 299 298 292 254 190 142 103 51 37 40 46 52 52 45 41 33 24 21 14 9 9 4 359
227 244 213 208 202 206 235 230 220 218 220 231 235 306 11 116 114 36 45 320 155 128 138 149 142 142 144 146 155 162 165 170 180 185 179 174 171 165 167 175 182 184 183 184 183 182 182 180 178 178 179 180 181 180 178 175 171 165 164 168 169 169 169 166 173 184 188 192 194 201 211 231 269 283 282 280 274 240 186 158 122 99 78 60 51 52 54 42 29 19 13 10 6 1 355 348 344
230 231 229 215 216 217 237 244 238 225 224 230 221 322 96 131 120 96 62 32 104 122 131 138 135 139 146 153 160 163 166 174 184 185 176 170 167 164 171 177 179 181 183 185 185 186 185 182 180 181 183 182 181 181 180 177 171 166 166 170 173 180 177 168 175 181 184 189 193 199 208 227 252 261 261 263 255 228 182 161 128 110 100 85 76 60 41 29 11 1 356 354 354 349 340 334 332
225 208 220 236 234 232 236 245 246 238 226 190 183 95 113 126 100 87 89 84 107 122 132 140 142 146 155 160 163 166 170 179 184 179 172 168 163 165 173 178 179 181 182 185 188 187 187 184 182 183 184 183 182 182 181 176 173 170 168 173 180 189 189 185 187 186 186 190 195 202 209 220 223 212 205 212 220 214 186 162 137 120 111 95 79 60 34 14 359 346 343 343 341 338 333 329 326
239 186 209 232 244 258 236 237 246 248 238 182 188 153 154 185 93 115 139 131 131 132 138 148 148 151 160 165 168 173 176 180 180 171 166 169 171 173 176 179 181 181 181 184 190 188 186 185 184 185 186 183 180 181 181 179 179 178 178 184 191 201 206 204 198 192 191 197 207 215 222 223 208 189 179 172 178 203 196 162 142 134 120 96 67 50 29 6 353 342 340 338 331 327 326 324 322
277 203 213 231 236 256 248 245 245 243 243 196 177 157 168 313 3 162 155 143 149 146 147 154 154 156 163 167 170 177 181 179 178 174 171 175 181 181 179 180 180 180 182 185 189 187 186 186 186 189 187 183 179 179 180 182 183 184 191 200 205 214 213 204 198 196 200 207 217 226 234 228 209 190 178 170 163 181 187 160 150 146 130 102 52 35 12 348 333 328 327 326 320 317 317 317 318
269 220 225 240 233 245 241 246 239 205 227 185 141 121 261 324 147 154 145 146 153 149 152 156 157 159 161 167 170 175 182 180 185 186 182 181 185 185 181 181 179 179 183 186 188 188 189 187 189 190 186 182 178 177 180 184 187 191 201 208 208 209 201 195 196 200 208 214 220 230 233 225 213 197 180 172 168 181 184 166 155 148 134 53 2 1 346 320 307 305 308 313 314 315 319 320 321
259 205 195 236 251 246 232 229 224 204 207 162 142 180 261 256 153 148 143 152 154 153 161 161 158 158 157 164 165 172 182 185 195 194 188 187 189 188 182 180 180 180 183 187 189 191 191 190 192 192 187 185 179 176 181 186 190 194 198 198 195 194 190 192 197 205 215 217 222 228 223 217 212 201 181 174 179 190 185 169 160 157 152 354 342 338 321 306 306 309 316 320 322 328 335 336 333
224 172 160 205 220 239 232 213 201 211 208 157 167 218 224 175 158 151 152 160 160 159 163 164 163 160 156 163 165 175 185 193 204 195 190 193 194 190 183 179 179 181 183 186 189 191 192 193 196 195 191 188 183 181 185 188 189 188 189 189 186 189 190 195 202 211 219 221 222 218 210 206 199 185 170 172 175 178 174 157 148 146 142 151 335 348 323 322 331 332 333 333 331 335 341 343 341
156 178 194 213 215 236 262 227 192 207 215 156 177 209 185 176 168 155 158 166 167 161 161 164 166 163 162 167 167 174 182 191 202 195 193 198 196 190 183 179 178 182 183 184 186 187 188 192 195 196 192 189 186 187 189 189 186 185 187 188 187 190 193 200 207 212 216 214 207 195 195 191 174 163 162 164 163 162 158 142 129 129 127 114 85 42 353 351 1 353 347 341 342 344 341 340 340
278 202 208 212 209 208 263 260 204 200 200 168 183 170 148 181 173 165 166 169 171 165 165 167 168 169 169 170 170 174 180 185 192 189 193 198 196 189 182 179 180 185 184 182 182 180 180 180 183 186 185 184 184 186 187 185 183 184 186 188 191 192 194 199 198 198 195 185 171 162 168 172 163 157 155 155 152 147 142 133 123 119 112 92 72 45 32 24 18 12 1 353 354 351 344 339 336
240 209 213 219 201 183 210 269 235 186 190 197 143 137 168 182 169 168 171 173 173 170 172 173 173 173 173 173 174 179 185 187 181 179 189 196 195 191 185 182 181 181 181 180 178 177 174 170 170 172 174 177 178 181 183 181 180 181 183 187 189 186 183 178 167 164 161 155 153 146 145 150 152 151 149 150 146 135 129 128 124 114 93 72 54 35 32 25 15 13 7 5 360 353 351 346 338
205 195 200 204 168 173 198 241 226 168 188 193 126 133 175 165 163 166 171 174 175 180 180 176 176 174 173 175 178 182 187 188 174 168 177 186 187 185 182 177 173 172 174 175 175 175 171 167 166 166 169 173 175 177 178 177 176 176 176 173 167 160 154 150 148 148 145 144 144 141 141 142 144 146 145 146 141 132 128 125 121 103 72 22 357 354 357 357 356 355 353 358 358 357 356 350 340
180 175 159 153 147 182 205 225 220 167 173 188 157 153 157 158 167 169 172 174 175 187 191 182 180 177 174 177 180 184 185 178 163 161 163 166 170 170 168 166 164 166 169 171 172 173 171 168 166 167 170 173 173 173 173 172 169 167 164 155 145 141 142 143 143 143 140 139 140 141 143 143 145 145 141 141 137 131 124 115 105 65 8 330 328 335 347 350 351 351 347 349 349 348 348 347 342
127 129 133 161 166 203 212 222 231 167 159 208 180 152 156 166 173 173 170 171 178 191 195 192 188 184 182 181 180 180 178 161 153 156 151 149 154 158 160 161 160 160 165 170 171 172 174 172 171 171 173 175 176 175 174 173 169 162 154 145 139 138 142 142 138 138 138 136 138 141 144 144 146 145 141 138 128 117 105 96 79 22 356 343 357 14 12 1 356 354 351 352 352 354 360 358 351
91 117 139 171 180 210 221 216 224 175 152 245 165 145 161 172 172 173 167 171 191 194 191 192 189 186 185 182 178 172 162 154 154 148 142 143 147 155 160 161 162 163 166 171 172 172 174 174 175 175 175 177 177 175 174 173 170 165 154 145 142 140 142 142 137 136 136 137 138 139 140 141 144 141 133 124 104 81 60 53 48 43 34 25 39 39 18 3 360 358 355 358 4 15 24 17 7
240 155 136 175 210 209 232 234 247 147 125 158 157 146 163 172 168 175 180 186 201 196 195 196 186 183 183 181 175 168 163 164 164 150 141 144 147 156 161 163 168 169 170 172 172 170 170 173 176 177 177 175 171 171 173 170 165 162 156 148 146 142 141 143 141 139 140 142 141 136 135 137 142 133 108 72 36 37 20 26 47 51 48 41 40 32 18 12 12 12 10 10 18 32 41 33 27
233 189 144 208 235 173 202 233 25 41 96 148 147 136 155 156 149 176 191 199 198 193 206 208 194 191 185 181 175 171 173 167 164 157 142 144 150 160 165 166 168 168 168 170 170 170 171 175 178 178 176 170 170 174 175 168 157 153 152 149 148 146 141 142 142 140 141 144 139 134 130 122 114 97 73 49 40 48 45 56 69 63 60 50 36 31 28 27 26 27 29 33 44 53 58 50 45
223 201 162 186 219 194 193 180 90 43 63 128 126 117 169 158 159 184 181 183 192 196 202 204 208 205 184 179 181 178 179 172 164 160 148 148 158 168 169 168 166 165 167 169 170 172 174 178 180 179 175 171 174 176 170 164 156 150 148 145 144 141 138 140 140 135 134 136 131 126 118 98 84 72 63 56 52 59 65 71 71 69 68 57 42 40 41 41 42 46 48 52 60 69 77 69 60
222 213 177 176 202 219 189 163 126 65 46 175 133 119 199 166 176 191 165 178 196 196 203 206 203 199 187 184 187 184 182 180 170 157 151 156 165 170 168 166 165 166 170 171 173 174 176 180 180 178 174 172 175 174 170 166 161 157 154 149 146 141 136 138 140 137 134 130 122 117 109 93 82 73 68 65 60 67 73 72 71 70 67 59 52 55 61 65 68 70 71 73 77 83 93 84 70
219 214 174 176 194 176 179 180 152 121 187 212 139 122 188 241 213 200 177 187 201 200 208 211 201 197 196 188 187 187 185 182 173 162 161 167 170 168 165 166 168 167 169 172 175 175 177 180 180 178 174 172 173 172 172 170 166 163 162 160 157 154 147 141 141 140 136 131 125 119 112 103 92 81 77 73 66 72 79 82 80 75 73 72 75 79 81 81 81 82 82 82 83 86 91 85 76
227 204 160 168 185 174 185 184 176 167 131 142 257 96 126 216 212 196 185 185 197 211 215 214 205 200 197 192 189 188 186 184 175 171 176 179 175 168 165 168 169 167 168 171 174 175 178 179 179 179 177 175 174 172 174 174 170 167 166 165 163 161 154 145 143 139 135 135 131 123 117 108 96 87 86 76 70 85 96 97 91 87 89 90 91 90 89 88 86 86 85 84 82 80 83 84 80
223 178 151 163 181 182 176 137 119 115 103 153 240 151 110 231 201 163 186 188 196 213 215 211 203 197 195 193 192 188 186 186 177 176 182 181 175 170 167 168 168 166 168 171 174 176 177 176 176 178 178 177 175 173 174 175 173 171 170 168 162 158 153 146 144 142 140 140 133 125 119 111 102 96 88 73 91 113 115 110 103 100 99 98 97 95 93 93 90 88 85 83 83 83 84 85 82
204 144 123 126 156 181 175 135 96 86 108 197 219 192 152 249 205 162 172 195 205 214 213 207 200 196 194 191 191 187 184 186 178 174 182 178 173 171 167 168 167 165 167 169 172 176 175 172 172 174 175 174 172 174 174 173 174 173 172 169 160 154 151 147 145 144 144 142 135 128 122 118 114 109 103 108 128 128 124 120 113 108 105 102 100 97 96 95 92 89 86 85 87 87 87 85 83
163 114 109 86 65 87 128 99 89 97 232 222 206 195 177 208 215 186 183 203 205 205 202 199 199 198 195 191 191 187 183 185 175 172 180 174 168 166 164 167 167 163 163 165 169 173 171 169 169 169 169 171 172 173 174 173 175 176 174 171 164 159 156 153 149 145 146 145 138 132 127 125 122 121 125 129 129 128 126 124 116 111 109 106 104 101 99 97 94 93 90 90 90 88 87 85 82
161 116 140 134 352 8 42 22 67 156 240 233 194 187 185 217 220 192 209 221 209 196 195 195 195 197 195 191 188 186 183 181 174 174 178 168 162 162 164 166 165 161 160 162 164 166 165 166 167 166 167 171 173 174 175 175 176 177 176 174 170 167 165 161 156 152 151 149 142 137 134 132 129 128 129 127 124 124 124 122 116 113 111 109 109 106 103 100 98 97 95 93 91 88 87 84 81
175 126 126 137 186 204 156 344 123 204 244 236 180 171 187 239 229 200 211 222 215 202 202 197 192 192 191 187 184 183 181 178 177 176 175 169 163 164 167 167 163 159 159 159 160 160 160 163 165 165 165 170 174 176 178 177 178 179 178 175 172 169 167 163 160 157 155 153 149 145 141 136 132 130 128 125 123 123 122 120 117 113 111 112 113 110 105 103 101 99 97 95 91 88 85 81 80
180 163 151 158 156 157 192 209 218 240 253 251 174 166 192 269 251 215 211 214 213 210 207 195 191 189 181 178 178 178 179 179 178 173 171 172 168 167 168 166 160 157 157 158 158 157 157 158 161 162 161 168 173 176 178 178 177 179 178 175 171 167 164 164 163 161 157 156 152 146 140 136 133 129 127 125 125 125 122 119 116 113 113 115 114 111 107 104 102 99 97 95 92 90 85 81 79
184 164 140 157 162 165 188 195 199 230 250 278 147 159 190 203 231 240 219 212 209 200 164 154 168 172 164 167 174 176 179 180 179 172 169 171 169 167 167 164 159 156 156 157 158 157 156 156 159 159 158 163 169 172 175 175 174 174 173 172 169 166 165 165 164 162 159 156 151 144 138 137 135 131 129 128 128 127 122 119 118 114 114 115 114 112 107 104 103 100 98 97 94 91 86 81 77
186 128 129 185 184 155 158 179 182 186 201 216 150 184 223 203 253 293 218 194 186 152 127 138 152 162 163 172 179 178 179 180 179 172 167 169 168 166 164 162 158 156 156 159 160 158 157 156 157 158 159 161 165 166 168 170 168 168 169 169 167 167 167 165 162 161 158 155 150 144 139 139 138 135 133 132 131 129 125 123 120 116 116 116 113 111 107 105 104 101 100 99 96 91 85 80 76
162 152 176 196 158 126 111 221 196 116 165 230 171 194 282 284 298 324 136 161 160 142 142 150 159 166 171 182 183 179 180 181 180 175 166 165 166 165 163 160 158 158 159 162 163 161 160 160 158 157 156 158 162 163 164 165 166 166 168 169 169 169 168 166 163 160 155 151 146 142 141 142 142 140 138 136 133 130 128 126 123 120 118 116 114 111 108 106 104 102 102 101 98 92 85 80 75
143 191 191 130 97 107 92 208 309 69 179 262 182 177 227 202 248 324 132 158 163 156 156 156 162 170 179 187 183 177 179 179 179 173 163 161 164 163 160 160 160 160 161 163 162 161 162 163 163 161 159 159 162 163 163 164 165 165 166 168 169 169 168 166 164 159 153 148 145 143 144 145 146 145 142 138 135 131 129 128 126 124 121 118 115 111 109 108 105 104 104 102 98 92 85 80 74
163 180 160 126 137 185 151 165 194 159 195 270 314 241 230 198 201 191 168 176 176 167 163 163 172 180 185 184 179 176 174 174 176 171 163 163 166 162 157 159 161 160 161 162 160 159 160 162 165 164 163 162 162 163 163 162 163 163 165 167 168 168 167 164 161 157 152 150 148 148 149 148 147 147 144 142 139 134 131 130 128 126 124 122 118 114 111 110 108 108 107 103 98 90 84 80 73
196 132 144 159 160 172 192 177 161 182 196 205 289 313 266 231 209 185 186 186 177 171 174 179 184 186 186 181 177 176 173 173 175 171 167 165 165 162 157 158 160 159 160 161 159 159 159 161 163 163 161 160 161 163 162 161 161 163 163 165 166 166 165 162 159 156 153 151 152 153 152 149 147 147 146 144 142 138 135 133 130 129 127 125 122 118 116 115 113 112 110 104 98 88 82 78 74
198 178 175 182 163 149 192 198 146 152 166 169 171 227 260 251 207 188 194 187 178 179 181 185 189 187 184 180 177 176 172 171 171 169 167 165 162 160 158 157 157 157 160 162 161 159 159 161 163 163 161 161 162 163 163 161 161 163 164 164 164 164 162 159 157 155 153 152 154 154 153 152 149 147 148 147 143 142 142 139 134 131 129 127 126 123 121 120 118 116 112 105 97 87 80 76 76
176 192 201 186 169 142 163 215 225 126 158 178 160 191 257 254 196 191 197 186 183 186 182 184 189 184 180 179 176 174 170 167 168 168 166 161 156 156 156 155 154 157 161 163 161 159 159 162 164 164 166 166 166 165 164 162 161 163 164 163 163 162 160 158 155 154 154 155 156 155 154 154 150 148 151 150 147 147 149 147 141 136 133 131 128 127 125 123 120 118 115 106 96 86 81 78 78